STARLINK-32000, 60289

Orbit data source: Space-Track

STARLINK-32000, 60289 is a payload satellite owned by SpaceX/Seattle (US) in LEO that was launched on Sun, 28 Jul 2024 UTC via an FALCON 9 launch vehicle from the Air Force Eastern Test Range (AFETR). Payload-class satellites include a variety of spacecraft equipped with specific instruments for various scientific and technological missions. These include communications satellites like Starlink; space stations such as the ISS; scientific satellites like the Hubble; Earth observation satellites from companies like Planet Labs, Umbra, and HawkEye 360; GPS; miniature CubeSats for education and research; and military/defense satellites.

Loading next visibility...
Identifier
60289, 2024-132M
Orbit
LEO
Last TLE update
20 hours ago
Origin
Manufacturer
SpaceX/Seattle
Mission
Operational spacecraft
Bus & Motor
STARLINK V2M, Unknown motor
Mass
730 kg wet, ~700 kg dry
Launch date (UTC)
2024-07-28 (9 months ago)
Launch vehicle
FALCON 9
Launch site
Air Force Eastern Test Range (AFETR)
Object type
Payload
Rocket body
Debris
Shape & HBR
Unknown
Radar Cross Section
Large (>1 m²)

Expand to show TLE details & history

TLE from 20 hours ago
0 STARLINK-32000
1 60289U 24132M   25128.96411505  .00000537  00000-0  30257-4 0  9992
2 60289  53.1616  27.9839 0001038  91.8056 268.3064 15.30186576 44906
Epoch: 2025-05-08T23:08Z
Definitive object data (Epoch: 2025-05-08T23:08:19.54Z)
Latitude
0.00001°
Longitude
173.87543°
Altitude
476.176 km
Speed
7.629 km/s
True Right ascension
01h 51m 56s
True Declination
0° 00' 00"
Sunlit
Object was in daylight at TLE epoch
Visualization TLE readout
Latitude
-52.9806°
Longitude
88.89986°
Altitude
494.379 km
Speed
7.617 km/s
Apparent Right ascension
17h 31m 48s
Apparent Declination
-52° 37' 51"
Sunlit
Object is in partial shadow
Visualization observer readout
Local Sidereal Time
03:19:48
Azimuth
229.441° WSW
Elevation
-64.207°
Doppler factor
1
Orbital elements
Apogee altitude
476.223 km
Perigee altitude
474.8 km
Semi-major axis
6,853.648 km
Eccentricity
0.0001038
Inclination
53.1616°
RAAN
27.9839°
Arg. of periapsis
91.8056°
True anomaly
268.29451°
Mean anomaly
268.3064°
Eccentric anomaly
268.30046°
Mean motion
3.82526 °/min
BSTAR
0.000030257
Orbital period
94.11 mins
Loading maneuver chart data...
Loading SW <> Apogee altitude chart data...
Loading historical data...
Loading historical data...
Loading historical data...
Loading historical data...
Loading historical data...
Loading historical data...
Loading historical data...

STARLINK-32000 Visibility forecast

Observer location: undefined°, undefined°

Span
Click to sort rows by Start time (UTC) header in descending order
Start Az.
Max El. time (UTC)
Max El. Az.
Max El.
End time (UTC)
End Az.
7 mins2025-05-09 19:40:52.982Z218.045° SW2025-05-09 19:43:52.982Z177.518° S40.104°2025-05-09 19:47:52.982Z55.628° ENE
4 mins2025-05-09 21:20:52.982Z299.041° NW2025-05-09 21:22:52.982Z343.988° N20.013°2025-05-09 21:24:52.982Z21.267° NNE
6 mins2025-05-10 02:16:52.982Z323.011° NNW2025-05-10 02:18:52.982Z4.633° NNE37.223°2025-05-10 02:22:52.982Z114.826° SE
|